EA1HLH-13 Weather Reports


time (UTC)temp
C
wind
direction
speed
KPH
gust
KPH
rain 1hr
cm
rain 24hr
cm
rain mn
cm
humidity
%
barometer
mb
20260508122628 15 142 1.6 9.7 0.00 0.00 0.00 77 1007.8
20260508122128 15 280 3.2 11.3 0.00 0.00 0.00 76 1007.9
20260508121629 15 177 3.2 9.7 0.00 0.00 0.00 76 1007.9
20260508121128 15 186 3.2 9.7 0.00 0.00 0.00 75 1007.9
20260508120628 15 160 1.6 4.8 0.00 0.00 0.00 75 1007.8
20260508120128 15 286 4.8 4.8 0.00 0.00 0.00 73 1007.9
20260508115628 15 256 3.2 8.0 0.00 0.00 0.00 74 1007.9
20260508115128 16 171 3.2 4.8 0.00 0.00 0.00 74 1007.8
20260508114628 16 283 3.2 4.8 0.00 0.00 0.00 77 1007.7
20260508114128 16 266 4.8 11.3 0.00 0.00 0.00 74 1007.7
20260508113628 16 198 3.2 4.8 0.00 0.00 0.00 74 1007.7
20260508113128 16 230 1.6 1.6 0.00 0.00 0.00 76 1007.8
20260508112628 16 149 1.6 4.8 0.00 0.00 0.00 75 1007.8
20260508112128 16 146 0.0 4.8 0.00 0.00 0.00 76 1007.8
20260508111628 15 185 3.2 4.8 0.00 0.00 0.00 75 1007.8
20260508111128 15 143 3.2 9.7 0.00 0.00 0.00 76 1007.8
20260508110628 15 120 8.0 9.7 0.00 0.00 0.00 76 1007.9
20260508110128 15 123 8.0 12.9 0.00 0.00 0.00 77 1007.9
20260508105627 15 111 9.7 14.5 0.00 0.00 0.00 76 1008.0
20260508105128 15 172 1.6 3.2 0.00 0.00 0.00 78 1008.0
20260508104627 15 170 4.8 8.0 0.00 0.00 0.00 77 1008.0
20260508104127 15 145 9.7 14.5 0.00 0.00 0.00 78 1008.0
20260508103628 15 131 8.0 11.3 0.00 0.00 0.00 79 1008.0
20260508103129 15 184 8.0 4.8 0.00 0.00 0.00 79 1007.9
20260508102629 15 175 3.2 1.6 0.00 0.00 0.00 80 1008.1
20260508102129 15 194 3.2 4.8 0.00 0.00 0.00 81 1008.0
20260508101629 15 136 8.0 12.9 0.00 0.00 0.00 81 1008.0
20260508101129 14 157 4.8 9.7 0.00 0.00 0.00 82 1008.0
20260508100629 14 140 9.7 14.5 0.00 0.00 0.00 82 1007.9
20260508100129 14 138 3.2 9.7 0.00 0.00 0.00 84 1007.9
20260508095629 14 149 8.0 11.3 0.00 0.00 0.00 84 1008.0
20260508095129 14 162 3.2 4.8 0.00 0.00 0.00 85 1007.9
20260508094629 14 160 8.0 19.3 0.00 0.00 0.00 85 1008.0
20260508094129 14 126 8.0 9.7 0.00 0.00 0.00 85 1008.0
20260508093629 14 164 8.0 11.3 0.00 0.00 0.00 85 1007.8
20260508093129 14 128 3.2 9.7 0.00 0.00 0.00 84 1007.8
20260508092629 14 197 3.2 12.9 0.00 0.00 0.00 84 1007.7
20260508092129 14 184 3.2 9.7 0.00 0.00 0.00 85 1007.7
20260508091628 14 203 1.6 4.8 0.00 0.00 0.00 86 1007.7
20260508091128 14 107 1.6 3.2 0.00 0.00 0.00 87 1007.7
20260508090627 13 132 0.0 0.0 0.00 0.00 0.00 87 1007.6
20260508090129 13 100 4.8 4.8 0.00 0.00 0.00 86 1007.6
20260508085628 13 140 4.8 4.8 0.00 0.00 0.00 86 1007.6
20260508085129 13 172 3.2 4.8 0.00 0.00 0.00 88 1007.6
20260508084628 13 140 1.6 4.8 0.00 0.00 0.00 88 1007.7
20260508084128 13 273 0.0 3.2 0.00 0.00 0.00 89 1007.7
20260508083629 13 122 1.6 4.8 0.00 0.00 0.00 89 1007.9
20260508083128 12 125 0.0 3.2 0.00 0.00 0.00 89 1007.8
20260508082628 12 180 1.6 8.0 0.00 0.00 0.00 90 1007.8
20260508082129 12 153 3.2 4.8 0.00 0.00 0.00 90 1007.6
20260508081628 12 118 0.0 4.8 0.00 0.00 0.00 90 1007.7
20260508081129 12 129 3.2 4.8 0.00 0.00 0.00 91 1007.7
20260508080629 12 118 1.6 4.8 0.00 0.00 0.00 91 1007.7
20260508080128 12 147 3.2 11.3 0.00 0.00 0.00 91 1007.7
20260508075629 12 145 4.8 9.7 0.00 0.00 0.00 91 1007.8
20260508075129 12 134 4.8 4.8 0.00 0.00 0.00 90 1007.7
20260508074628 12 112 4.8 4.8 0.00 0.00 0.00 90 1007.8
20260508074129 12 140 0.0 3.2 0.00 0.00 0.00 90 1007.6
20260508073629 12 151 1.6 1.6 0.00 0.00 0.00 90 1007.6
20260508073129 12 160 3.2 4.8 0.00 0.00 0.00 90 1007.6
20260508072628 12 186 3.2 8.0 0.00 0.00 0.00 90 1007.6
20260508072128 12 146 1.6 8.0 0.00 0.00 0.00 90 1007.6
20260508071628 12 155 1.6 3.2 0.00 0.00 0.00 90 1007.6
20260508071128 12 148 3.2 9.7 0.00 0.00 0.00 90 1007.6
20260508070628 12 148 3.2 8.0 0.00 0.00 0.00 90 1007.6
20260508070128 12 144 1.6 4.8 0.00 0.00 0.00 90 1007.6
20260508065628 12 184 0.0 4.8 0.00 0.00 0.00 91 1007.5
20260508065128 11 166 1.6 4.8 0.00 0.00 0.00 91 1007.3
20260508064628 11 128 0.0 1.6 0.00 0.00 0.00 91 1007.4
20260508064129 11 138 0.0 0.0 0.00 0.00 0.00 91 1007.3
20260508063629 11 145 0.0 0.0 0.00 0.00 0.00 91 1007.2
20260508063129 11 244 0.0 0.0 0.00 0.00 0.00 91 1007.2
20260508062629 11 244 0.0 0.0 0.00 0.00 0.00 91 1007.1
20260508062129 11 244 0.0 0.0 0.00 0.00 0.00 91 1007.0
20260508061629 11 205 0.0 0.0 0.00 0.00 0.00 92 1006.9
20260508061129 11 143 0.0 0.0 0.00 0.00 0.00 92 1006.9
20260508060628 11 113 0.0 0.0 0.00 0.00 0.00 92 1006.8
20260508060128 11 113 0.0 0.0 0.00 0.00 0.00 92 1007.0
20260508055629 11 113 0.0 1.6 0.00 0.00 0.00 92 1006.8
20260508055128 11 113 0.0 0.0 0.00 0.00 0.00 91 1006.7
20260508054628 11 113 0.0 0.0 0.00 0.00 0.00 91 1006.6
20260508054128 11 127 0.0 1.6 0.00 0.00 0.00 91 1006.6
20260508053628 11 146 0.0 0.0 0.00 0.00 0.00 91 1006.5
20260508053128 11 130 0.0 1.6 0.00 0.00 0.00 91 1006.6
20260508052628 11 117 0.0 0.0 0.00 0.00 0.00 91 1006.6
20260508052128 11 217 1.6 3.2 0.00 0.00 0.00 91 1006.7
20260508051629 11 84 0.0 1.6 0.00 0.00 0.00 91 1006.7
20260508051128 11 106 1.6 4.8 0.00 0.00 0.00 91 1006.8
20260508050628 11 143 1.6 4.8 0.00 0.00 0.00 91 1006.9
20260508050129 11 167 1.6 4.8 0.00 0.00 0.00 91 1006.9
20260508045628 11 189 3.2 4.8 0.00 0.00 0.00 91 1006.9
20260508045128 11 176 3.2 9.7 0.00 0.00 0.00 91 1006.9
20260508044628 11 177 1.6 8.0 0.00 0.00 0.00 91 1007.0
20260508044128 11 172 3.2 8.0 0.00 0.00 0.00 91 1007.0
20260508043628 11 130 3.2 4.8 0.00 0.00 0.00 91 1007.0
20260508043128 11 124 3.2 4.8 0.00 0.00 0.00 91 1007.0
20260508042628 11 143 0.0 1.6 0.00 0.00 0.00 90 1007.0
20260508042128 11 265 0.0 1.6 0.00 0.00 0.00 90 1007.0
20260508041628 11 217 0.0 1.6 0.00 0.00 0.00 90 1006.9
20260508041128 11 240 0.0 0.0 0.00 0.00 0.00 90 1007.0
20260508040628 11 215 0.0 0.0 0.00 0.00 0.00 89 1006.9
20260508040128 11 193 0.0 0.0 0.00 0.00 0.00 89 1006.9
20260508035628 11 202 0.0 1.6 0.00 0.00 0.00 89 1007.0
20260508035128 11 71 0.0 0.0 0.00 0.00 0.00 89 1007.0
20260508034628 11 82 0.0 1.6 0.00 0.00 0.00 89 1007.0
20260508034129 11 209 0.0 0.0 0.00 0.00 0.00 89 1007.1
20260508033628 11 209 0.0 0.0 0.00 0.00 0.00 89 1007.1
20260508033128 12 175 0.0 0.0 0.00 0.00 0.00 89 1007.1
20260508032628 12 117 0.0 3.2 0.00 0.00 0.00 89 1007.0
20260508032128 12 119 1.6 4.8 0.00 0.00 0.00 89 1006.9
20260508031628 11 115 1.6 4.8 0.00 0.00 0.00 89 1007.0
20260508031128 12 149 1.6 4.8 0.00 0.00 0.00 89 1007.1
20260508030628 12 124 4.8 4.8 0.00 0.00 0.00 90 1007.1
20260508030128 11 108 1.6 4.8 0.00 0.00 0.00 90 1007.1
20260508025628 11 154 3.2 4.8 0.00 0.00 0.00 90 1007.0
20260508025128 11 151 1.6 4.8 0.00 0.00 0.00 91 1006.9
20260508024628 11 142 3.2 8.0 0.00 0.00 0.00 91 1007.0
20260508024128 11 135 4.8 8.0 0.00 0.00 0.00 91 1007.1
20260508023628 11 115 1.6 4.8 0.00 0.00 0.00 91 1007.1
20260508023128 11 142 1.6 4.8 0.00 0.00 0.00 92 1007.0
20260508022628 11 152 4.8 8.0 0.00 0.00 0.00 92 1007.0
20260508022128 11 167 0.0 4.8 0.00 0.00 0.00 93 1007.0
20260508021628 11 193 4.8 11.3 0.00 0.00 0.00 93 1007.1
20260508021128 11 132 0.0 3.2 0.00 0.00 0.00 94 1007.1
20260508020629 11 181 1.6 0.0 0.00 0.00 0.00 94 1007.3
20260508020128 11 127 1.6 4.8 0.00 0.00 0.00 94 1007.2
20260508015629 11 122 0.0 4.8 0.00 0.00 0.00 94 1007.2
20260508015129 11 92 1.6 1.6 0.00 0.00 0.00 95 1007.3
20260508014629 11 172 0.0 4.8 0.00 0.00 0.00 95 1007.3
20260508014129 11 220 0.0 3.2 0.00 0.00 0.00 96 1007.3
20260508013629 11 99 0.0 0.0 0.00 0.00 0.00 96 1007.4
20260508013129 10 127 0.0 1.6 0.00 0.00 0.00 96 1007.7
20260508012629 10 112 0.0 1.6 0.00 0.00 0.00 97 1007.8
20260508012129 10 149 0.0 4.8 0.00 0.00 0.00 97 1007.8
20260508011629 10 129 0.0 1.6 0.00 0.00 0.00 97 1007.9
20260508011129 10 113 0.0 0.0 0.00 0.00 0.00 98 1007.9
20260508010629 10 140 0.0 0.0 0.00 0.00 0.00 98 1008.1
20260508010129 10 105 0.0 0.0 0.00 0.00 0.00 98 1008.0
20260508005629 10 151 0.0 1.6 0.00 0.00 0.00 98 1008.1
20260508005129 10 169 1.6 8.0 0.00 0.00 0.00 98 1008.2
20260508004628 10 169 0.0 0.0 0.00 0.00 0.00 98 1008.1
20260508004129 10 129 0.0 0.0 0.00 0.00 0.00 98 1008.2
20260508003628 10 158 0.0 0.0 0.00 0.00 0.00 98 1008.2
20260508003128 10 158 0.0 0.0 0.00 0.00 0.00 98 1008.2
20260508002629 10 158 0.0 0.0 0.00 0.00 0.00 98 1008.2
20260508002129 10 158 0.0 0.0 0.00 0.00 0.00 98 1008.3
20260508001629 10 158 0.0 0.0 0.00 0.00 0.00 98 1008.3
20260508001129 10 145 0.0 0.0 0.00 0.00 0.00 98 1008.3
20260508000629 10 140 0.0 0.0 0.00 0.00 0.00 98 1008.3
20260508000129 10 134 0.0 0.0 0.00 0.00 0.00 98 1008.2
20260507235629 9 206 0.0 0.0 0.00 0.00 0.00 98 1008.3
20260507235129 9 185 0.0 0.0 0.00 0.00 0.00 98 1008.3
20260507234629 9 184 0.0 0.0 0.00 0.00 0.00 97 1008.4
20260507234129 9 184 0.0 0.0 0.00 0.00 0.00 98 1008.3
20260507233629 9 184 0.0 0.0 0.00 0.00 0.00 98 1008.5
20260507233129 9 107 0.0 0.0 0.00 0.00 0.00 97 1008.5
20260507232629 9 107 0.0 0.0 0.00 0.00 0.00 97 1008.6
20260507232129 9 107 0.0 0.0 0.00 0.00 0.00 97 1008.6
20260507231629 9 107 0.0 0.0 0.00 0.00 0.00 97 1008.6
20260507231129 9 107 0.0 0.0 0.00 0.00 0.00 97 1008.6
20260507230629 10 107 0.0 0.0 0.00 0.00 0.00 97 1008.6
20260507230129 10 109 0.0 0.0 0.00 0.00 0.00 97 1008.6
20260507225628 10 112 0.0 1.6 0.00 0.00 0.00 97 1008.6
20260507225128 10 117 0.0 0.0 0.00 0.00 0.00 97 1008.7
20260507224628 10 117 0.0 0.0 0.00 0.00 0.00 97 1008.8
20260507224128 10 117 0.0 0.0 0.00 0.00 0.00 97 1008.8
20260507223628 10 117 0.0 0.0 0.00 0.00 0.00 97 1008.8
20260507223128 10 117 1.6 1.6 0.00 0.00 0.00 97 1008.8
20260507222628 10 131 0.0 0.0 0.00 0.00 0.00 97 1008.9
20260507222128 10 131 0.0 0.0 0.00 0.00 0.00 97 1008.9
20260507221628 10 131 0.0 0.0 0.00 0.00 0.00 97 1009.0
20260507221128 10 131 0.0 0.0 0.00 0.00 0.00 96 1009.1
20260507220628 10 127 0.0 0.0 0.00 0.00 0.00 96 1009.3
20260507220128 10 127 0.0 0.0 0.00 0.00 0.00 96 1009.3
20260507215628 10 127 0.0 1.6 0.00 0.00 0.00 96 1009.3
20260507215128 10 165 0.0 1.6 0.00 0.00 0.00 96 1009.4
20260507214628 11 277 0.0 1.6 0.00 0.00 0.00 96 1009.3
20260507214128 11 277 0.0 0.0 0.00 0.00 0.00 96 1009.3
20260507213628 11 277 0.0 0.0 0.00 0.00 0.00 96 1009.3
20260507213128 11 277 0.0 0.0 0.00 0.00 0.00 96 1009.3
20260507212629 11 277 0.0 0.0 0.00 0.00 0.00 96 1009.3
20260507212129 11 277 0.0 0.0 0.00 0.00 0.00 96 1009.3
20260507211629 11 277 0.0 0.0 0.00 0.00 0.00 96 1009.2
20260507211129 11 277 0.0 0.0 0.00 0.00 0.00 95 1009.1
20260507210629 11 277 0.0 0.0 0.00 0.00 0.00 95 1009.2
20260507210331 11 277 0.0 0.0 0.00 0.00 0.00 95 1009.1
20260507205831 11 277 0.0 0.0 0.00 0.00 0.00 95 1008.9
20260507205331 11 277 0.0 0.0 0.00 0.00 0.00 95 1009.1
20260507204831 11 277 0.0 0.0 0.00 0.00 0.00 95 1008.9
20260507204331 11 277 0.0 0.0 0.00 0.00 0.00 94 1008.7
20260507203831 12 277 0.0 0.0 0.00 0.00 0.00 94 1008.8
20260507203331 12 277 0.0 0.0 0.00 0.00 0.00 94 1008.7
20260507202831 12 277 0.0 0.0 0.00 0.00 0.00 94 1008.7
20260507202331 12 277 0.0 0.0 0.00 0.00 0.00 94 1008.7
20260507201831 12 277 0.0 0.0 0.00 0.00 0.00 94 1008.7
20260507201331 12 277 0.0 0.0 0.00 0.00 0.00 94 1008.7
20260507200831 12 277 0.0 0.0 0.00 0.00 0.00 94 1008.6
20260507200330 12 277 0.0 0.0 0.00 0.00 0.00 93 1008.7
20260507195830 12 277 0.0 0.0 0.00 0.00 0.00 93 1008.7
20260507195330 12 277 0.0 0.0 0.00 0.00 0.00 93 1008.7
20260507194830 12 277 0.0 0.0 0.00 0.00 0.00 93 1008.7
20260507194331 13 277 0.0 0.0 0.00 0.00 0.00 93 1008.6
20260507193831 13 277 0.0 0.0 0.00 0.00 0.00 92 1008.7
20260507193331 13 277 0.0 0.0 0.00 0.00 0.00 92 1008.6
20260507192831 13 277 0.0 0.0 0.00 0.00 0.00 92 1008.5
20260507192331 13 277 0.0 0.0 0.00 0.00 0.00 92 1008.5
20260507191831 13 282 1.6 3.2 0.00 0.00 0.00 92 1008.4
20260507191331 13 280 3.2 3.2 0.00 0.00 0.00 92 1008.6
20260507190831 13 266 1.6 1.6 0.00 0.00 0.00 91 1008.6
20260507190331 13 262 1.6 1.6 0.00 0.00 0.00 91 1008.6
20260507185831 13 257 0.0 1.6 0.00 0.00 0.00 91 1008.6
20260507185331 13 271 1.6 1.6 0.00 0.00 0.00 91 1008.6
20260507184831 13 279 0.0 0.0 0.00 0.00 0.00 91 1008.6
20260507184331 13 289 0.0 1.6 0.00 0.00 0.00 91 1008.4
20260507183831 13 278 0.0 1.6 0.00 0.00 0.00 91 1008.4
20260507183331 13 265 0.0 3.2 0.00 0.00 0.00 91 1008.5
20260507182831 13 274 1.6 1.6 0.00 0.00 0.00 90 1008.5
20260507182331 14 282 4.8 8.0 0.00 0.00 0.00 89 1008.4
20260507181831 14 279 8.0 9.7 0.00 0.00 0.00 89 1008.4
20260507181330 14 279 4.8 11.3 0.00 0.00 0.00 86 1008.4
20260507180831 15 284 4.8 9.7 0.00 0.00 0.00 87 1008.4
20260507180331 15 289 4.8 9.7 0.00 0.00 0.00 86 1008.5
20260507175831 15 286 4.8 9.7 0.00 0.00 0.00 86 1008.5
20260507175331 15 285 4.8 9.7 0.00 0.00 0.00 87 1008.4
20260507174831 15 260 4.8 4.8 0.00 0.00 0.00 87 1008.5
20260507174331 15 283 3.2 4.8 0.00 0.00 0.00 87 1008.4
20260507173831 15 278 4.8 8.0 0.00 0.00 0.00 88 1008.4
20260507173331 15 288 1.6 9.7 0.00 0.00 0.00 89 1008.5
20260507172831 14 339 1.6 3.2 0.00 0.00 0.00 89 1008.5
20260507172331 14 346 0.0 1.6 0.00 0.00 0.00 90 1008.5
20260507171831 13 66 1.6 3.2 0.00 0.00 0.00 89 1008.7
20260507171331 13 317 3.2 1.6 0.00 0.00 0.00 89 1008.6
20260507170831 13 354 1.6 4.8 0.00 0.00 0.00 90 1008.6
20260507170331 14 37 3.2 4.8 0.00 0.00 0.00 89 1008.7
20260507165831 14 39 3.2 4.8 0.00 0.00 0.00 89 1008.6
20260507165331 14 0 3.2 4.8 0.00 0.00 0.00 89 1008.5
20260507164831 14 317 3.2 4.8 0.00 0.00 0.00 88 1008.5
20260507164331 14 17 4.8 9.7 0.00 0.00 0.00 87 1008.6
20260507163831 14 20 4.8 9.7 0.00 0.00 0.00 86 1008.8
20260507163330 15 40 4.8 8.0 0.00 0.00 0.00 86 1008.7
20260507162830 15 349 3.2 9.7 0.00 0.00 0.00 86 1008.5
20260507162330 15 12 3.2 9.7 0.00 0.00 0.00 85 1008.7
20260507161830 15 4 3.2 4.8 0.00 0.00 0.00 84 1008.8
20260507161330 15 25 3.2 4.8 0.00 0.00 0.00 84 1008.8
20260507160830 15 7 4.8 8.0 0.00 0.00 0.00 83 1008.7
20260507160330 15 61 4.8 4.8 0.00 0.00 0.00 83 1008.7
20260507155830 15 3 3.2 4.8 0.00 0.00 0.00 83 1008.8
20260507155330 15 349 3.2 4.8 0.00 0.00 0.00 83 1008.8
20260507154832 15 48 3.2 4.8 0.00 0.00 0.00 83 1008.7
20260507154333 15 67 4.8 11.3 0.00 0.00 0.00 83 1008.7
20260507153905 15 38 1.6 9.7 0.00 0.00 0.00 84 1008.8
20260507153832 15 38 1.6 9.7 0.00 0.00 0.00 84 1008.8
20260507153332 15 77 1.6 4.8 0.00 0.00 0.00 85 1008.8
20260507153115 15 12 3.2 8.0 0.00 0.00 0.00 84 1008.8
20260507152854 14 351 8.0 12.9 0.00 0.00 0.00 84 1008.7
20260507152831 15 12 3.2 8.0 0.00 0.00 0.00 84 1008.8
20260507152331 14 351 8.0 12.9 0.00 0.00 0.00 84 1008.7
20260507152309 14 39 11.3 11.3 0.00 0.00 0.00 84 1008.7
20260507151832 14 39 11.3 11.3 0.00 0.00 0.00 84 1008.7
20260507151331 14 52 4.8 8.0 0.00 0.00 0.00 85 1008.7
20260507150830 15 329 9.7 12.9 0.00 0.00 0.00 85 1008.7
20260507150330 15 356 8.0 12.9 0.00 0.00 0.00 86 1008.8
20260507145830 15 355 8.0 9.7 0.00 0.00 0.00 87 1008.8
20260507145330 15 27 8.0 11.3 0.00 0.00 0.00 85 1008.9
20260507144830 15 31 8.0 9.7 0.00 0.00 0.00 85 1009.0
20260507144330 15 10 8.0 12.9 0.00 0.00 0.00 86 1009.2
20260507143830 14 353 4.8 8.0 0.00 0.00 0.00 86 1009.3
20260507143330 14 0 4.8 9.7 0.00 0.00 0.00 87 1009.5
20260507142830 14 330 3.2 8.0 0.00 0.00 0.00 87 1009.4
20260507142330 14 15 9.7 14.5 0.00 0.00 0.00 86 1009.5
20260507141830 15 4 9.7 12.9 0.00 0.00 0.00 85 1009.6
20260507141330 15 57 9.7 16.1 0.00 0.00 0.00 84 1009.7
20260507140831 15 343 8.0 11.3 0.00 0.00 0.00 86 1009.7
20260507140330 15 14 4.8 12.9 0.00 0.00 0.00 86 1009.5
20260507135830 15 21 8.0 16.1 0.00 0.00 0.00 87 1009.5
20260507135330 15 34 12.9 19.3 0.00 0.00 0.00 86 1009.4
20260507134830 15 357 4.8 11.3 0.00 0.00 0.00 86 1009.4
20260507134330 15 15 4.8 16.1 0.00 0.00 0.00 85 1009.4
20260507133830 15 0 8.0 14.5 0.00 0.00 0.00 86 1009.2
20260507133330 15 22 8.0 16.1 0.00 0.00 0.00 85 1009.3
20260507132831 15 355 4.8 11.3 0.00 0.00 0.00 85 1009.2
20260507132331 15 36 8.0 11.3 0.00 0.00 0.00 86 1009.3
20260507131831 15 29 4.8 14.5 0.00 0.00 0.00 86 1009.3
20260507131331 15 23 4.8 11.3 0.00 0.00 0.00 84 1009.4
20260507130831 15 28 4.8 11.3 0.00 0.00 0.00 85 1009.3
20260507130331 15 23 4.8 8.0 0.00 0.00 0.00 85 1009.4
20260507125831 15 19 8.0 9.7 0.00 0.00 0.00 85 1009.4
20260507125331 15 336 4.8 11.3 0.00 0.00 0.00 85 1009.5
20260507124831 15 3 8.0 14.5 0.00 0.00 0.00 85 1009.6
20260507124331 15 287 4.8 16.1 0.00 0.00 0.00 86 1009.7
20260507123831 15 310 8.0 12.9 0.00 0.00 0.00 86 1009.8
20260507123331 15 332 3.2 4.8 0.00 0.00 0.00 87 1010.0